Wind_Speed
13 11 10 9 8 7 6 5 5 6 6 3 4 7 8 10 11 12 12 12 13 13 13 14 14 14 15 15 13 12 11 9 8 7 7 6 6 6 6 5 5 5 4 3
15 12 12 12 11 9 8 6 6 6 7 4 5 6 8 11 12 11 12 11 12 13 14 14 14 15 15 15 14 12 12 10 9 8 7 6 6 7 6 6 4 4 4 4
16 14 14 14 13 12 10 8 8 8 7 4 7 9 9 10 12 12 11 11 12 12 13 13 14 14 15 15 15 13 12 11 9 8 7 7 7 7 7 6 5 4 4 4
19 17 16 15 14 13 11 10 10 9 7 4 7 10 11 11 11 12 11 11 12 12 12 13 13 13 14 15 15 14 12 12 12 10 9 8 7 7 7 6 5 5 5 5
21 20 18 17 15 15 13 12 11 9 8 6 7 9 13 10 10 11 11 10 11 12 12 12 13 13 14 14 15 15 14 13 12 11 10 9 8 8 7 7 6 5 6 6
22 21 20 19 17 17 15 12 11 11 10 9 7 8 12 10 9 9 10 9 10 10 11 12 12 13 14 14 14 15 14 14 13 11 11 11 10 9 8 7 6 6 6 6
25 22 21 21 19 18 16 13 11 10 9 9 7 8 12 14 12 12 11 10 10 10 11 11 12 12 13 14 14 14 14 13 12 12 11 11 11 10 9 8 7 7 7 7
23 22 22 23 21 20 18 16 14 11 9 9 8 10 13 16 15 13 12 10 10 10 11 11 12 12 13 14 14 14 14 13 13 12 11 11 11 11 10 9 8 8 8 8
21 21 22 23 22 21 19 19 15 14 12 13 12 10 13 17 17 15 14 12 11 10 10 11 12 13 13 14 14 14 14 13 13 13 13 12 12 11 11 10 9 9 9 9
23 22 22 23 24 24 21 19 18 18 16 14 13 12 14 16 17 15 14 13 12 11 10 11 11 13 13 13 14 14 14 14 14 14 14 13 13 12 12 11 10 10 10 10
27 24 23 24 25 25 23 21 21 20 18 15 15 14 14 17 16 16 15 12 12 12 12 11 12 13 13 13 13 14 14 15 15 15 14 14 13 13 13 12 11 11 11 11
30 26 25 25 25 24 23 23 21 22 22 19 17 16 15 15 15 17 15 13 13 12 13 13 13 13 12 13 13 14 15 15 15 15 15 15 14 14 13 12 12 12 12 12
33 31 28 25 24 25 25 24 23 22 20 19 17 18 18 17 17 19 18 15 13 14 13 13 13 13 12 13 14 14 15 15 15 15 15 15 15 14 14 13 13 13 12 12
35 35 32 26 22 22 24 24 24 24 23 21 19 19 20 20 20 20 19 16 15 14 14 13 13 13 13 14 14 14 14 15 16 16 16 16 16 16 15 15 14 14 13 13
36 37 35 31 26 23 22 23 24 25 25 23 20 20 21 22 22 21 19 17 16 15 14 14 14 14 14 15 15 15 15 16 16 16 17 17 18 17 16 16 15 15 15 15
37 37 36 35 31 27 25 24 23 24 25 25 23 21 22 24 24 23 21 19 19 18 15 15 15 15 15 15 16 16 16 17 17 17 18 19 19 19 17 17 17 16 15 15
36 37 37 35 33 31 30 26 24 24 24 24 24 24 24 25 26 25 23 21 21 20 16 16 16 16 16 16 17 17 18 18 18 18 19 20 20 19 18 18 18 18 16 16
37 37 37 34 33 34 31 27 25 24 24 24 25 27 27 26 27 27 25 23 21 20 18 18 18 17 17 18 18 18 19 19 19 19 20 20 20 19 19 19 19 18 17 17
36 36 35 34 33 32 29 29 27 27 27 28 28 30 29 29 28 28 25 24 22 21 21 20 19 19 18 19 19 19 19 20 20 21 21 22 21 20 19 19 20 19 18 18
35 36 36 35 33 31 29 27 27 29 31 31 31 31 30 29 29 27 25 23 22 22 21 21 21 20 20 20 20 20 20 21 21 22 22 22 21 20 20 20 20 20 20 20
34 36 37 35 33 31 30 29 29 31 33 32 32 33 32 31 30 27 25 24 23 22 22 22 23 22 21 21 21 22 22 22 23 23 23 22 21 21 20 20 20 21 21 21
34 35 36 35 33 33 32 32 33 34 33 32 31 32 32 32 31 29 27 25 24 23 23 23 23 23 23 23 23 23 24 24 24 24 23 22 22 21 21 21 21 21 22 22
35 35 34 36 37 36 35 35 35 34 33 33 32 31 30 30 30 29 28 27 26 25 25 25 25 25 24 24 25 25 24 24 24 23 23 22 22 22 22 22 22 22 22 22
38 37 36 37 39 38 37 36 35 35 34 34 33 31 29 29 29 28 28 28 27 26 26 26 26 26 26 26 25 25 25 24 24 24 24 23 23 24 24 23 23 22 22 23
37 37 39 40 40 39 38 37 36 35 34 34 34 32 31 30 29 28 28 29 28 28 27 27 27 27 26 26 26 26 26 25 25 25 25 25 25 25 25 25 24 24 24 24
37 37 40 41 40 40 39 37 36 36 35 35 35 34 32 31 30 29 29 29 29 28 28 28 28 28 28 27 27 27 27 27 26 26 26 26 27 27 26 26 26 26 26 26
Wind_Direction
194 189 188 198 207 195 206 228 240 262 280 286 304 341 359 351 356 358 3 10 16 22 24 21 19 17 15 13 11 13 14 15 13 6 0 1 358 358 356 348 343 353 353 342
204 205 202 204 210 201 208 215 241 270 286 293 301 322 351 351 352 352 355 3 12 16 18 19 17 16 14 13 12 12 11 12 11 8 3 358 356 354 351 349 344 344 346 337
211 213 213 211 214 211 211 218 227 242 263 289 300 303 315 334 338 345 348 355 7 9 11 13 13 14 12 11 12 11 9 9 8 7 2 356 352 351 348 346 340 334 333 324
214 214 217 214 214 215 212 222 230 233 247 263 284 292 298 306 326 339 344 348 356 2 3 7 10 11 11 11 11 9 9 6 4 0 357 354 352 349 345 344 334 323 319 315
216 216 216 214 217 216 214 221 226 235 247 252 261 279 293 301 309 329 336 343 348 355 358 1 5 8 8 9 9 9 7 4 359 357 357 355 352 348 343 337 328 321 318 313
215 221 220 216 216 217 217 220 229 236 247 254 254 273 288 289 296 308 319 330 338 344 348 353 358 1 3 4 4 4 3 3 0 357 356 355 352 347 341 333 324 320 317 313
216 221 222 220 220 220 218 218 233 252 255 258 252 263 281 286 296 297 303 314 325 336 343 345 348 351 355 359 360 0 360 359 357 356 353 354 353 348 344 336 325 320 316 313
222 225 224 225 222 219 217 219 226 239 256 267 246 243 264 282 290 294 296 301 313 327 335 340 342 344 349 353 355 357 356 355 354 354 353 352 353 353 348 339 332 325 318 316
221 227 228 232 227 220 220 219 223 238 248 260 252 247 261 276 287 295 296 297 304 317 325 331 338 340 343 347 350 355 357 357 355 353 350 348 348 349 346 341 335 332 324 321
215 225 227 233 231 224 222 223 223 229 236 246 260 254 257 267 282 294 295 293 296 307 313 320 329 336 337 341 346 352 357 358 356 354 351 347 347 346 343 338 336 332 326 321
213 221 224 229 232 227 223 222 224 227 227 241 256 258 263 261 273 281 287 287 285 296 306 312 324 327 331 334 338 345 350 353 353 351 350 349 347 343 339 338 336 333 328 322
215 218 222 227 235 234 229 226 228 230 228 229 243 258 259 268 270 273 277 280 285 289 301 310 314 318 324 331 336 339 344 346 347 347 348 347 344 343 339 334 332 332 330 326
217 218 219 224 228 234 232 227 225 231 236 237 241 256 262 262 264 268 274 275 280 286 291 298 304 310 317 325 329 332 337 340 341 342 343 342 342 343 342 336 330 329 328 326
220 221 218 218 225 233 237 231 226 223 229 235 239 246 257 262 261 265 271 275 278 281 286 291 296 303 312 318 322 326 331 334 334 335 337 338 338 338 336 335 331 327 325 321
221 222 220 215 214 221 230 234 232 228 224 228 236 242 251 258 262 265 267 270 275 277 279 283 288 296 306 312 316 321 325 328 328 329 331 333 332 331 330 330 331 333 333 328
222 222 222 219 215 218 224 230 232 231 228 227 229 237 247 255 257 260 265 270 274 274 275 277 280 288 299 306 312 315 318 321 323 324 325 327 328 328 328 329 329 329 330 330
224 223 223 223 220 222 225 225 229 232 231 228 230 236 243 253 257 258 261 265 271 271 271 273 275 282 290 298 305 311 313 315 318 320 321 323 324 326 326 324 325 325 327 328
226 225 225 225 223 226 226 225 228 230 231 230 229 236 242 248 253 258 260 261 264 267 268 270 273 279 285 294 301 304 307 310 313 317 319 320 320 320 322 321 321 323 323 325
225 225 225 224 226 229 227 225 223 224 227 226 226 232 238 245 252 255 256 257 260 262 264 267 271 276 282 289 296 301 303 307 310 313 314 315 315 315 317 318 320 320 321 323
224 224 224 223 223 226 229 228 225 224 228 229 229 233 237 242 250 253 254 256 257 260 262 266 271 275 279 285 292 298 302 304 307 309 310 311 311 312 313 315 316 319 320 320
223 223 222 223 223 225 224 223 225 226 228 231 232 234 237 242 249 254 256 256 256 259 263 267 269 272 275 281 287 294 298 301 304 305 305 306 307 309 311 312 314 317 318 318
222 224 222 220 220 225 224 226 225 228 230 233 236 237 239 243 246 250 255 257 258 259 262 264 265 268 273 279 284 291 294 296 299 300 301 303 303 305 307 311 312 315 316 316
216 220 222 220 219 223 227 230 230 232 233 234 238 240 242 243 247 251 252 255 258 258 260 261 263 266 271 277 282 286 289 291 295 298 300 301 303 303 305 307 310 312 312 313
216 216 220 221 222 222 226 230 232 233 235 237 240 241 242 244 247 249 251 253 255 258 259 260 262 265 270 275 280 284 286 289 294 297 298 298 299 302 303 304 306 309 311 312
219 217 220 223 224 225 227 231 233 235 235 237 240 241 242 244 247 249 251 252 253 255 257 259 261 264 269 274 277 281 283 286 290 293 295 297 297 298 301 301 304 306 308 310
222 220 220 223 223 225 228 232 234 236 237 237 239 241 244 245 246 248 250 251 252 254 257 258 261 264 268 272 276 278 280 283 287 290 291 295 296 299 300 300 301 302 305 307
Height
5927 5930 5933 5936 5938 5940 5941 5943 5943 5943 5941 5940 5939 5938 5937 5936 5934 5933 5931 5929 5928 5926 5924 5922 5921 5919 5917 5915 5913 5911 5910 5909 5908 5907 5906 5906 5905 5904 5903 5903 5902 5902 5901 5901
5926 5929 5932 5934 5936 5938 5941 5942 5943 5943 5941 5940 5939 5939 5938 5937 5935 5934 5932 5931 5929 5927 5926 5924 5922 5920 5918 5916 5914 5912 5911 5910 5909 5907 5907 5906 5905 5904 5903 5902 5902 5902 5902 5901
5924 5929 5930 5933 5935 5937 5939 5941 5942 5943 5942 5941 5940 5939 5938 5937 5936 5935 5933 5931 5930 5928 5927 5925 5923 5921 5919 5917 5915 5913 5912 5910 5909 5908 5907 5906 5905 5904 5903 5902 5902 5902 5901 5901
5922 5925 5928 5930 5933 5935 5938 5940 5940 5941 5941 5941 5942 5940 5938 5937 5936 5935 5934 5932 5930 5929 5927 5926 5924 5922 5920 5918 5916 5914 5913 5911 5909 5908 5907 5906 5905 5904 5903 5902 5902 5901 5901 5901
5918 5922 5924 5927 5931 5933 5935 5937 5938 5939 5939 5940 5941 5940 5938 5936 5935 5935 5934 5933 5931 5929 5928 5926 5925 5923 5921 5919 5917 5915 5913 5911 5910 5908 5907 5906 5905 5904 5903 5902 5901 5901 5900 5900
5915 5918 5921 5924 5927 5930 5932 5935 5936 5936 5938 5939 5940 5940 5937 5935 5935 5935 5934 5933 5932 5930 5928 5927 5925 5923 5922 5920 5918 5916 5914 5912 5910 5908 5907 5906 5904 5903 5902 5901 5901 5900 5900 5899
5910 5914 5917 5921 5924 5927 5930 5933 5935 5935 5936 5937 5938 5939 5938 5935 5935 5934 5933 5933 5932 5930 5929 5927 5925 5924 5922 5921 5918 5916 5914 5912 5910 5909 5907 5906 5904 5902 5901 5900 5900 5899 5899 5898
5907 5911 5914 5917 5920 5924 5926 5930 5933 5935 5936 5937 5937 5938 5937 5934 5934 5933 5932 5931 5931 5930 5928 5927 5925 5924 5922 5921 5919 5916 5914 5912 5910 5909 5907 5905 5903 5902 5900 5899 5898 5898 5897 5896
5905 5909 5912 5913 5916 5920 5923 5926 5930 5934 5935 5935 5934 5935 5934 5933 5932 5932 5931 5930 5929 5929 5927 5926 5925 5923 5922 5921 5919 5916 5913 5912 5911 5909 5907 5905 5903 5901 5899 5898 5897 5896 5895 5895
5900 5904 5908 5910 5913 5915 5919 5923 5927 5929 5931 5932 5933 5932 5931 5930 5930 5930 5929 5928 5927 5927 5926 5925 5924 5923 5921 5920 5918 5916 5914 5912 5910 5908 5906 5904 5902 5900 5898 5897 5896 5895 5894 5893
5894 5899 5903 5906 5907 5911 5915 5918 5921 5924 5927 5930 5930 5931 5927 5926 5927 5927 5927 5926 5925 5924 5923 5922 5922 5922 5920 5919 5918 5916 5914 5912 5910 5908 5906 5903 5901 5899 5897 5896 5895 5894 5893 5891
5888 5893 5897 5901 5904 5907 5910 5914 5917 5920 5922 5924 5926 5929 5924 5925 5924 5923 5924 5924 5923 5922 5921 5921 5921 5920 5919 5917 5916 5915 5913 5911 5909 5907 5905 5903 5901 5899 5897 5895 5894 5893 5891 5890
5881 5886 5891 5896 5901 5902 5905 5908 5912 5916 5919 5921 5923 5926 5922 5923 5922 5920 5920 5921 5921 5921 5920 5920 5919 5918 5917 5916 5915 5914 5913 5911 5909 5907 5904 5902 5900 5898 5896 5894 5893 5891 5890 5888
5874 5879 5885 5891 5895 5898 5900 5903 5907 5911 5914 5917 5920 5921 5919 5919 5918 5917 5917 5918 5918 5919 5918 5918 5917 5916 5915 5915 5914 5913 5911 5909 5908 5906 5904 5901 5899 5897 5895 5893 5891 5889 5888 5886
5866 5871 5877 5882 5888 5892 5895 5898 5901 5905 5908 5913 5916 5917 5915 5913 5913 5913 5914 5915 5915 5916 5916 5915 5915 5914 5914 5913 5912 5911 5909 5908 5906 5904 5902 5900 5897 5895 5894 5891 5889 5888 5886 5884
5858 5864 5869 5875 5881 5885 5889 5893 5896 5899 5903 5907 5910 5911 5910 5909 5909 5909 5910 5911 5912 5912 5912 5912 5912 5912 5911 5910 5909 5908 5907 5906 5904 5902 5900 5898 5896 5893 5891 5890 5888 5886 5884 5882
5851 5857 5863 5868 5874 5878 5882 5887 5891 5894 5897 5901 5904 5906 5904 5904 5904 5904 5906 5908 5908 5907 5908 5909 5909 5909 5908 5908 5907 5906 5904 5903 5901 5900 5898 5896 5893 5891 5889 5888 5886 5884 5882 5880
5845 5850 5856 5862 5867 5870 5877 5882 5886 5889 5892 5895 5897 5898 5898 5899 5899 5899 5902 5903 5904 5904 5904 5905 5905 5906 5905 5905 5904 5903 5902 5900 5899 5897 5895 5893 5891 5889 5887 5885 5883 5881 5880 5878
5838 5843 5849 5855 5859 5864 5870 5874 5878 5882 5884 5886 5889 5890 5892 5893 5893 5893 5896 5898 5899 5900 5901 5901 5901 5901 5902 5901 5900 5899 5898 5897 5895 5894 5892 5890 5888 5886 5884 5882 5880 5878 5876 5875
5831 5836 5842 5847 5852 5857 5863 5867 5871 5875 5877 5879 5881 5883 5886 5888 5888 5886 5889 5892 5893 5895 5895 5895 5896 5897 5897 5897 5896 5896 5894 5893 5892 5890 5888 5887 5885 5883 5881 5879 5877 5875 5873 5871
5824 5829 5834 5839 5845 5850 5855 5858 5863 5867 5868 5871 5874 5877 5879 5882 5883 5883 5883 5886 5888 5890 5891 5891 5892 5892 5893 5892 5892 5891 5890 5889 5887 5886 5884 5883 5881 5879 5877 5876 5874 5872 5870 5868
5818 5823 5827 5833 5838 5844 5846 5850 5853 5856 5860 5863 5866 5870 5873 5875 5877 5878 5879 5881 5882 5885 5886 5886 5887 5887 5887 5887 5887 5886 5885 5884 5883 5882 5880 5879 5877 5875 5873 5872 5870 5868 5866 5864
5810 5816 5820 5825 5830 5833 5837 5841 5845 5849 5852 5856 5860 5863 5865 5867 5869 5872 5874 5875 5877 5878 5880 5880 5881 5882 5882 5882 5882 5881 5880 5879 5878 5877 5875 5874 5872 5871 5869 5867 5865 5863 5861 5859
5801 5807 5812 5816 5820 5825 5829 5833 5837 5841 5845 5849 5853 5856 5858 5860 5862 5865 5867 5869 5870 5872 5873 5874 5875 5876 5876 5877 5876 5876 5875 5874 5873 5872 5870 5869 5867 5866 5864 5863 5861 5859 5857 5855
5793 5798 5803 5807 5812 5817 5820 5825 5829 5834 5838 5841 5845 5848 5850 5853 5855 5858 5860 5862 5864 5865 5866 5867 5869 5869 5870 5870 5871 5870 5869 5868 5867 5866 5865 5864 5862 5860 5859 5857 5856 5854 5852 5850
5785 5789 5793 5797 5802 5809 5814 5817 5821 5826 5830 5833 5837 5840 5843 5846 5848 5850 5853 5855 5856 5858 5860 5861 5862 5863 5864 5864 5864 5864 5863 5862 5861 5860 5859 5858 5857 5855 5853 5851 5850 5848 5846 5844